sat.trackr.live / text

‹ back to catalog

STARLINK-11411 [DTC]

NORAD 62018 · 2024-213L

PAYLOAD ACTIVE UNKNOWN

§ Identity

Operator
Country
US
Launch date
2024-11-18
Launch site
AFWTR
Launch vehicle
Mass (kg)
RCS (m²)

Purposes: comms

External: N2YO · Heavens-Above · Gunter

§ Orbital elements

Epoch: 2026-09-21T05:00:02.138976Z

Period
91.73 min
Inclination
53.1566°
Eccentricity
0.0000893
Mean motion
15.69749984 rev/d
Perigee alt
359.0 km
Apogee alt
360.2 km
Semi-major
6,737.7 km
B*
1.1515e-3
RAAN
157.4250°
Arg perigee
107.6355°
Mean anomaly
252.4761°
Rev number
10,562

§ Raw data

STARLINK-11411 [DTC]1 62018U 24213L   26264.20835809  .00141550  00000+0  11515-2 0  99942 62018  53.1566 157.4250 0000893 107.6355 252.4761 15.69749984105629

JSON: /api/v1/satellites/62018 · /tle

For live sub-satellite position, see the globe view (requires WebGL).

§ Visibility from observer

Set your observer location to see the next 7 days of passes ≥ 10°. The values pass through the URL so the page stays shareable.

No JS? Fill the form by hand. The geolocation button needs JavaScript.